Tracking 19252 objects as of 17-Oct-2018
HD Live streaming from Space Station
objects crossing your sky now

INTELSAT 4-F1

Track INTELSAT 4-F1 now!
INTELSAT 4-F1 is classified as:


NORAD ID: 7815
Int'l Code: 1975-042A
Perigee: 36,032.7 km
Apogee: 36,124.5 km
Inclination: 13.6 °
Period: 1,450.7 minutes
Semi major axis: 42449 km
RCS: 12.6 m2 (large)
Launch date: May 22, 1975
Source: International Telecommunications Satellite Organization (ITSO)
Launch site: AIR FORCE EASTERN TEST RANGE (AFETR)
aabbcc
Your satellite tracking list
Your tracking list is empty




NASA's NSSDC Master Catalog

Two Line Element Set (TLE):
1  7815U 75042A   18289.46571131 -.00000322  00000-0  00000+0 0  9992
2  7815  13.6246 331.7216 0010821 209.8631 150.0588  0.99264220 94227
Source of the keplerian elements: AFSPC